Tracking 35280 objects as of 7-Sep-2026
HD Live streaming from Space Station
objects crossing your sky now

AMOS 17

Track AMOS 17 now!
AMOS 17 is classified as:


NORAD ID: 44479
Int'l Code: 2019-050A
Launch date: August 6, 2019
Source: Israel (ISRA)
Launch site: AIR FORCE EASTERN TEST RANGE (AFETR)
Your satellite tracking list
Your tracking list is empty




NASA's NSSDC Master Catalog

Two Line Element Set (TLE):
1 44479U 19050A   26250.16543418  .00000091  00000-0  00000+0 0  9999
2 44479   0.0361   3.7825 0001496 174.1297 244.8864  1.00273251 26001
Source of the keplerian elements: AFSPC